Location: Cucq
(50.4773°N, 1.6202°E)
Time: 15:46:22
(UTC+00:00)

SL-16 R/B - Pass Details

Date: 07 August 2020
Orbit: 985 x 1007 km, 99.5° (Epoch: 18 September)

Event Time Altitude Azimuth Distance (km) Brightness Sun altitude
Exits shadow 00:28:37 17° 126° (SE) 2,335 4.2 -22.9°
Maximum altitude 00:33:09 43° 62° (ENE) 1,387 3.5 -22.8°
Drops below altitude 10° 00:39:00 10° 354° (N) 2,791 5.9 -22.6°
Sets 00:41:36 0° 348° (NNW) 3,742 6.7 -22.5°
